Location: Petruro
(41.0333°N, 14.7833°E)
Time: 15:35:01
(UTC+00:00)

SL-08 R/B - Pass Details

Date: 20 June 2021
Orbit: 674 x 739 km, 98.5° (Epoch: 05 August)

Event Time Altitude Azimuth Distance (km) Brightness Sun altitude
Rises 02:04:20 0° 155° (SSE) 3,026 6.4 -13.0°
Reaches altitude 10° 02:06:33 10° 152° (SSE) 2,122 5.6 -12.7°
Maximum altitude 02:11:07 59° 73° (ENE) 797 3.9 -12.1°
Drops below altitude 10° 02:15:47 10° 354° (N) 2,174 6.4 -11.5°
Sets 02:18:05 0° 351° (N) 3,107 7.2 -11.2°
